www.pogodaiklimat.ru

Погода и климат >> Архив погоды >> Канада >> Cambridge Bay Arpt


ПОГОДА в Cambridge Bay Arpt

  • Прогноз погоды в Cambridge Bay Arpt
  • Монитор погоды в Cambridge Bay Arpt
  • Климат города

АРХИВ ПОГОДЫ в Cambridge Bay Arpt

Время (UTC), дата Ветер
(напр.,м/с)
 
Видим.   Явления Облачность Т
(С)
Тd
(С)
f
(%)
Тe
(С)
Тes
(С)
Комфортность P
(гПа)
Po
(гПа)
Тmin
(С)
Tmax
(С)
R
(мм)
R24
(мм)
S
(см)
00 14.09 1600 м слабый снег н/о -1.8 -3.3 89 -10 -10 1011.1 1007.1 -8.1 -1.7 0.6 3
15 14.09 С 5 24 км 9/9 200 м
[]
-2.2 -3.7 89 -9 -9 1013.4 1009.4
18 14.09 С 5 19 км в посл. час снег 8/8 200 м
[Sc]
-0.8 -3.1 84 -7 -7 1013.9 1009.9 0.4 3
21 14.09 С 7 24 км 9/9 200 м
[]
-0.7 -4.1 78 -8 -8 1014.8 1010.8
00 15.09 С 6 24 км слабый ливневой снег 10/10 200 м
[Cu Sc]
-1.4 -3.6 85 -8 -8 1015.5 1011.5 0.0 3
03 15.09 С 6 24 км 10/10 200 м
[]
-1.7 -3.9 85 -9 -9 1015.7 1011.7
06 15.09 С 6 19 км слабый ливневой снег 10/10 300 м
[Sc]
-2.2 -4.0 87 -9 -9 1016.0 1012.0 0.0 201
09 15.09 С 6 16 км 10/10 300 м
[]
-2.5 -4.9 84 -10 -10 1017.0 1013.0
12 15.09 С 6 9000 м слабый снег {ливн. осадки} 10/10 300 м
[Sc]
-2.7 -5.2 83 -10 -10 1018.2 1014.1 -2.8 0.0 3
15 15.09 С 6 24 км 9/9 200 м
[]
-2.9 -5.6 82 -10 -10 1019.3 1015.2
18 15.09 С 5 24 км {снег} 9/9 300 м
[Sc]
-2.8 -6.0 79 -10 -9 1020.6 1016.5 -3.3 -2.1 0.0 3
21 15.09 С 3 24 км 9/9 300 м
[]
-2.4 -6.2 75 -7 -7 1021.2 1017.1
00 16.09 СЗ 6 24 км 10/10 300 м
[Sc]
-3.2 -5.6 83 -10 -10 1021.6 1017.5 -3.3 -2.0
03 16.09 З 5 24 км 10/10 300 м
[]
-2.5 -4.7 85 -9 -9 1020.5 1016.4
06 16.09 З 8 6000 м слабый снег 10/10 200 м
[Sc]
-3.3 -5.3 86 -12 -12 1019.1 1015.0 -3.6 -2.0 0.0 71
09 16.09 З 6 4800 м 10/10 300 м
[]
-2.0 -3.4 90 -9 -9 1018.3 1014.2
12 16.09 СЗ 6 19 км слабый снег 10/10 200 м
[Sc]
-1.8 -3.8 86 -9 -9 1017.6 1013.5 -3.6 -2.0 0.2 5
15 16.09 З 6 24 км 9/9 200 м
[]
-1.4 -3.4 86 -8 -8 1016.5 1012.5
18 16.09 З 9 19 км слабый снег 10/10 200 м
[Frnb]
+0.2 -1.4 89 -8 -8 1014.5 1010.5 -3.6 +0.2 0.0 5
21 16.09 З 11 24 км 10/10 200 м
[]
-0.2 -2.7 83 -9 -9 1013.1 1009.1
00 17.09 З 9 19 км слабый снег 10/10 200 м
[Cu Sc]
-0.8 -2.6 88 -9 -9 1012.1 1008.1 -3.3 +0.3 0.0 5
03 17.09 З 4 19 км 9/9 300 м
[]
-1.7 -3.8 86 -8 -8 1011.3 1007.3
06 17.09 2800 м слабый снег н/о -2.8 -4.1 91 -9 -9 1010.1 1006.1 -3.3 +0.3 1 221
09 17.09 С 4 12 км 9/9 100 м
[]
-3.8 -7.1 78 -10 -10 1008.5 1004.5
12 17.09 СЗ 3 24 км осадки на расстоянии {снег} 9/9 200 м
[Cu Sc Ac trans]
-4.9 -7.7 81 -10 -10 1007.3 1003.3 -4.9 +0.3 6
15 17.09 СЗ 4 24 км 4/4 200 м
[]
-7.2 -9.0 87 -14 -13 1007.0 1003.0
18 17.09 СЗ 5 24 км 9/9 200 м
[Cu Sc Ci fib]
-5.3 -8.4 79 -12 -12 1007.2 1003.2 -8.3 -2.8
21 17.09 СЗ 4 24 км 4/4 200 м
[]
-5.0 -9.0 73 -11 -10 1007.3 1003.3
00 18.09 СЗ 4 24 км {снег} 4/4 200 м
[Cu Sc]
-7.3 -10.6 77 -14 -14 1007.6 1003.6 -8.3 -4.3 0.0 6
03 18.09 СЗ 6 19 км 8/8 200 м
[]
-7.5 -10.9 77 -15 -15 1007.4 1003.3
06 18.09 З 7 6000 м слабый снег 5/4 600 м
[Sc Ci fib]
-6.6 -9.0 83 -15 -15 1006.1 1002.1 -8.4 -2.8 0.0 11
09 18.09 З 7 8000 м 5/5 300 м
[]
-5.4 -7.2 87 -14 -14 1004.4 1000.4
12 18.09 СЗ 2 4000 м слабый снег 10/8 300 м
[Sc Ac As]
-5.9 -7.6 88 -10 -10 1003.3 999.3 -8.4 -2.8 1 7
15 18.09 С 3 19 км 9/9 200 м
[]
-6.2 -8.5 84 -11 -11 1003.2 999.2
18 18.09 СВ 8 12 км слабый ливневой снег 9/6 200 м
[Cu Sc Ac trans]
-5.1 -7.5 83 -14 -14 1004.9 1000.9 -8.4 -4.5 0.0 7
21 18.09 С 6 4800 м 10/10 200 м
[]
-5.1 -7.9 81 -13 -13 1006.8 1002.8
00 19.09 СЗ 3 9000 м слабый снег 10/10 200 м
[Cu Sc]
-5.1 -6.6 89 -11 -11 1007.0 1003.0 -7.2 -4.5 0.2 7
03 19.09 З 4 12 км 10/10 200 м
[]
-5.2 -7.0 87 -12 -12 1005.7 1001.7
06 19.09 З 5 6000 м слабый снег 10/10 200 м
[Cu Sc]
-5.8 -7.8 86 -13 -13 1004.5 1000.5 -7.3 -4.5 0.0 191
09 19.09 ЮВ 6 19 км 9/9 200 м
[]
-4.9 -6.9 86 -13 -13 1004.3 1000.3
12 19.09 СВ 6 24 км {снег} 4/4 300 м
[Sc]
-9.0 -10.8 87 -18 -18 1006.0 1002.0 -9.6 -4.5 0.0 7
15 19.09 СВ 7 19 км 9/9 300 м
[]
-6.1 -8.7 82 -14 -14 1007.6 1003.6
18 19.09 СЗ 5 16 км осадки на расстоянии {снег} 10/10 300 м
[Cu Sc]
-6.1 -8.8 81 -13 -13 1007.4 1003.4 -10.8 -4.9 0.0 7
21 19.09 З 10 3200 м 10/10 600 м
[]
-5.0 -6.7 88 -15 -15 1004.2 1000.2
00 20.09 13 2000 м слабый снег н/о -0.5 -1.6 92 -9 -9 1002.8 998.8 -10.8 -0.3 0.2 7
03 20.09 СВ 12 4800 м 10/10 200 м
[]
-2.2 -3.7 89 -12 -12 1003.6 999.6
06 20.09 СВ 8 9000 м слабый снег 6/6 100 м
[Frnb]
-4.8 -6.5 88 -13 -13 1008.6 1004.6 -10.8 -0.3 1 32
09 20.09 СВ 8 12 км 6/6 600 м
[]
-4.4 -6.5 85 -13 -13 1011.1 1007.1
12 20.09 СВ 9 12 км слабый снег 9/9 300 м
[Sc]
-4.9 -8.2 78 -14 -14 1013.5 1009.5 -5.4 -0.3 0.0 8
15 20.09 СВ 6 24 км 9/9 200 м
[]
-4.5 -8.5 74 -12 -12 1015.5 1011.4
18 20.09 СВ 8 24 км {снег} 4/4 200 м
[Sc]
-4.2 -8.1 74 -13 -12 1017.3 1013.2 -6.6 -3.8 0.0 8

 

Местоположение метеостанции Cambridge Bay Arpt (Канада): широта 69.10 долгота -105.10 высота над уровнем моря 27 м.

В архиве по умолчанию представлена погода в Cambridge Bay Arpt за последнюю неделю. Архивные данные за месяц целиком и за предыдущие месяцы, начиная с января 2011 года, Вы можете получить, выбрав интересующий диапазон дат из раскрывающегося списка и нажав кнопку "Ввод!".


*Определитесь, кто Вы:
робот инопланетянин человек

Внимание! Время в таблицах - всемирное. Для получения местного времени необходимо прибавить поправку, которая в Cambridge Bay Arpt равна -7 ч.

Смотрите также архив погоды в соседних городах и на ближайших метеорологических станциях:

Погода в Cape Peel West (Канада) (108 км)
Погода в Hat Island (Канада) (223 км)
Погода в Gjoa Haven Climate (Канада) (374 км)
Погода в Kugluktuk (Канада) (432 км)
Погода в Kugluktuk Airport (Канада) (432 км)
Погода в Lupin (Канада) (452 км)
Погода в Lupin (maps) (Канада) (452 км)
Погода в Spence bay (Канада) (454 км)
Погода в Robertson Lake (Канада) (460 км)
Погода в Shepherd Bay (Канада) (466 км)

Пояснения к столбцам:

Ветер - указаны скорость ветра в м/с - средняя за 10 мин, порывы в срок и между сроками (в фигурных скобках) и направление, откуда дует ветер: С - северный, СВ - северо-восточный, В - восточный, ЮВ - юго-восточный, Ю - южный, ЮЗ - юго-западный, З - западный, СЗ - северо-западный.
Видимость - горизонтальная дальность видимости в метрах или километрах. При видимости от 1 до 10 км при отсутствии осадков обычно наблюдается дымка, при ухудшении видимости до 1 км и менее - туман. В сухую погоду видимость может ухудшаться дымом, пылью или мглою.
Явления - указаны атмосферные явления, наблюдавшиеся в срок или в последний час перед сроком; фигурными скобками обозначены явления, наблюдавшиеся между сроками (за 1-3 часа до срока); квадратными скобками обозначены град или гололедные отложения с указанием их диаметра в мм.
Облачность - указаны через наклонную черту общая и нижняя облачность в баллах и высота нижней границы облаков в метрах; квадратными скобками обозначены формы облаков: Ci - перистые, Cs - перисто-слоистые, Cc - перисто-кучевые, Ac - высококучевые, As - высокослоистые, Sc - слоисто-кучевые, Ns - слоисто-дождевые, Cu - кучевые, Cb - кучево-дождевые. Подробнее классификацию облаков см. в Атласе облаков (PDF).
T - Температура воздуха - температура, измеренная на высоте 2 м над землей.
Td - Температура точки росы - температура, при понижении до которой содержащийся в воздухе водяной пар достигнет насыщения.
f - Относительная влажность воздуха - влажноcть воздуха, измеренная на высоте 2 м над землей.
Te - Эффективная температура - температура, которую ощущает одетый по сезону человек в тени. Характеристика душности погоды. При расчете учитывается влияние влажности воздуха и скорости ветра на теплоощущения человека.
Tes - Эффективная температура на солнце - температура, которую ощущает человек, с поправкой на солнечный нагрев. Характеристика знойности погоды. Зависит от высоты солнца над горизонтом, облачности и скорости ветра. Ночью, в пасмурную погоду, а также при ветре 12 м/с и более поправка равна нулю.
P - Атмосферное давление - приведенное к уровню моря атмосферное давление.
Po - Атмосферное давление - измеренное на уровне метеостанции атмосферное давление.
Tmin - Минимальная температура - минимум температуры воздуха на высоте 2 м над землей.
Tmax - Максимальная температура - максимум температуры воздуха на высоте 2 м над землей.
R - Количество осадков - Количество выпавших осадков за период времени, мм. При наведении курсора мыши на число - период времени, за который выпало указанное количество осадков.
R24 - Количество осадков - Количество выпавших осадков за 24 часа, мм.
S - Снежный покров - Высота снежного покрова, см. При наведении курсора мыши на число - состояние снежного покрова и степень покрытия местности в баллах.